ASA2447 PAPG-PAJN

Flight info

Callsign ASA2447
Flight time 0h 25m
Altitude 16000
Route SSR
Aircraft B789/H-SDE1E2E3FGHIJ2J3J4J5M1RWXY/LB1D1

Departure

Time 2026-05-03 20:42
Airport Petersburg James A Johnson Airport (PAPG)

Arrival

Time 2026-05-03 21:07
Airport Juneau International Airport (PAJN)
Time Latitude Longitude Altitude Speed Heading
2026-05-03 20:29 56.80527 -132.93648 108 ft 0 kts 68°
2026-05-03 20:38 56.80527 -132.93647 108 ft 0 kts 69°
2026-05-03 20:39 56.80520 -132.93573 107 ft 28 kts 101°
2026-05-03 20:39 56.80582 -132.93161 106 ft 24 kts 57°
2026-05-03 20:39 56.80603 -132.93111 107 ft 0 kts 250°
2026-05-03 20:39 56.80595 -132.93151 107 ft 6 kts 253°
2026-05-03 20:40 56.80281 -132.93909 107 ft 22 kts 248°
2026-05-03 20:40 56.80452 -132.93044 108 ft 1 kts 251°
2026-05-03 20:40 56.80389 -132.93371 107 ft 20 kts 250°
2026-05-03 20:40 56.80384 -132.93398 107 ft 0 kts 250°
2026-05-03 20:41 56.80333 -132.93658 106 ft 60 kts 250°
2026-05-03 20:41 56.80104 -132.94847 110 ft 136 kts 250°
2026-05-03 20:42 56.79732 -132.96810 321 ft 181 kts 255°
2026-05-03 20:42 56.79325 -132.99154 1207 ft 207 kts 254°
2026-05-03 20:42 56.78918 -133.01812 2355 ft 228 kts 257°
2026-05-03 20:42 56.78523 -133.04790 3524 ft 252 kts 259°
2026-05-03 20:43 56.78295 -133.08014 4837 ft 257 kts 272°
2026-05-03 20:43 56.78835 -133.10881 5696 ft 241 kts 309°
2026-05-03 20:43 56.80068 -133.12989 6420 ft 241 kts 322°
2026-05-03 20:43 56.81402 -133.14708 7104 ft 235 kts 323°
2026-05-03 20:44 56.82739 -133.16488 7705 ft 238 kts 320°
2026-05-03 20:44 56.84032 -133.18413 8449 ft 241 kts 318°
2026-05-03 20:44 56.85374 -133.20439 9211 ft 262 kts 319°
2026-05-03 20:44 56.86847 -133.22628 10140 ft 283 kts 319°
2026-05-03 20:45 56.88422 -133.24939 11080 ft 299 kts 318°
2026-05-03 20:45 56.90080 -133.27400 12117 ft 313 kts 318°
2026-05-03 20:45 56.91801 -133.29961 13203 ft 323 kts 317°
2026-05-03 20:45 56.93564 -133.32576 14360 ft 328 kts 317°
2026-05-03 20:46 56.95356 -133.35240 15438 ft 333 kts 317°
2026-05-03 20:46 56.97152 -133.37917 16482 ft 336 kts 317°
2026-05-03 20:46 56.98996 -133.40666 17570 ft 338 kts 317°
2026-05-03 20:46 57.00844 -133.43427 17923 ft 353 kts 317°
2026-05-03 20:47 57.02767 -133.46307 17407 ft 354 kts 317°
2026-05-03 20:47 57.04665 -133.49140 16920 ft 353 kts 317°
2026-05-03 20:47 57.06620 -133.52080 16447 ft 371 kts 317°
2026-05-03 20:47 57.08626 -133.55096 16054 ft 374 kts 317°
2026-05-03 20:48 57.10640 -133.58113 16032 ft 375 kts 317°
2026-05-03 20:48 57.12711 -133.61241 16038 ft 395 kts 317°
2026-05-03 20:48 57.14821 -133.64427 16033 ft 397 kts 317°
2026-05-03 20:48 57.16967 -133.67661 16041 ft 401 kts 317°
2026-05-03 20:49 57.19148 -133.70958 16035 ft 402 kts 317°
2026-05-03 20:49 57.21314 -133.74243 16042 ft 404 kts 317°
2026-05-03 20:49 57.23495 -133.77562 16040 ft 414 kts 317°
2026-05-03 20:49 57.25688 -133.80888 16040 ft 407 kts 317°
2026-05-03 20:50 57.27913 -133.84272 16043 ft 409 kts 317°
2026-05-03 20:50 57.30099 -133.87611 16041 ft 408 kts 317°
2026-05-03 20:50 57.32284 -133.90949 16044 ft 408 kts 317°
2026-05-03 20:50 57.34477 -133.94305 16042 ft 408 kts 317°
2026-05-03 20:51 57.36658 -133.97643 16041 ft 408 kts 317°
2026-05-03 20:51 57.38822 -134.00967 16023 ft 409 kts 317°
2026-05-03 20:51 57.41039 -134.04377 16036 ft 409 kts 317°
2026-05-03 20:51 57.43201 -134.07709 16038 ft 409 kts 317°
2026-05-03 20:52 57.45387 -134.11077 16033 ft 409 kts 317°
2026-05-03 20:52 57.47583 -134.14468 16017 ft 410 kts 316°
2026-05-03 20:52 57.49770 -134.17857 16016 ft 411 kts 317°
2026-05-03 20:52 57.51980 -134.21278 16017 ft 411 kts 317°
2026-05-03 20:53 57.54167 -134.24675 16017 ft 409 kts 317°
2026-05-03 20:53 57.56350 -134.28074 16013 ft 409 kts 317°
2026-05-03 20:53 57.58534 -134.31472 16014 ft 409 kts 317°
2026-05-03 20:53 57.60715 -134.34871 16012 ft 409 kts 316°
2026-05-03 20:54 57.62897 -134.38280 16016 ft 409 kts 316°
2026-05-03 20:54 57.67256 -134.45115 16009 ft 410 kts 316°
2026-05-03 20:54 57.69446 -134.48541 16012 ft 409 kts 316°
2026-05-03 20:55 57.71617 -134.51958 16008 ft 408 kts 316°
2026-05-03 20:55 57.87262 -134.79437 15996 ft 410 kts 314°
2026-05-03 20:55 57.94030 -134.91182 16020 ft 417 kts 319°
2026-05-03 20:55 57.96489 -134.94182 15995 ft 412 kts 325°
2026-05-03 20:56 57.98098 -134.96042 10831 ft 399 kts 323°
2026-05-03 20:56 58.00369 -134.98622 10787 ft 350 kts 325°
2026-05-03 20:56 58.02334 -135.00894 10741 ft 319 kts 322°
2026-05-03 20:56 58.04022 -135.03323 10398 ft 291 kts 314°
2026-05-03 20:57 58.05480 -135.05873 9697 ft 282 kts 313°
2026-05-03 20:57 58.06922 -135.08345 8904 ft 280 kts 315°
2026-05-03 20:57 58.08402 -135.10709 8116 ft 278 kts 316°
2026-05-03 20:57 58.09883 -135.13061 7343 ft 277 kts 316°
2026-05-03 20:58 58.11343 -135.15429 6587 ft 277 kts 316°
2026-05-03 20:58 58.12800 -135.17790 5798 ft 275 kts 319°
2026-05-03 20:58 58.14489 -135.19516 5014 ft 280 kts 340°
2026-05-03 20:58 58.16431 -135.19900 4240 ft 284 kts
2026-05-03 20:59 58.18305 -135.18823 3847 ft 284 kts 27°
2026-05-03 20:59 58.19824 -135.16436 3473 ft 284 kts 52°
2026-05-03 20:59 58.20750 -135.13231 3425 ft 279 kts 66°
2026-05-03 20:59 58.21581 -135.09805 3410 ft 280 kts 66°
2026-05-03 21:00 58.22451 -135.06634 3384 ft 268 kts 53°
2026-05-03 21:00 58.22879 -135.05747 3378 ft 268 kts 41°
2026-05-03 21:00 58.25624 -135.03289 3404 ft 264 kts 18°
2026-05-03 21:00 58.27368 -135.02181 3405 ft 264 kts 18°
2026-05-03 21:01 58.29092 -135.01100 3397 ft 254 kts 18°
2026-05-03 21:01 58.30748 -135.00054 3213 ft 249 kts 18°
2026-05-03 21:01 58.32345 -134.99039 3244 ft 237 kts 18°
2026-05-03 21:01 58.33929 -134.98032 3401 ft 242 kts 18°
2026-05-03 21:02 58.35531 -134.97016 3382 ft 238 kts 18°
2026-05-03 21:02 58.37044 -134.96053 3369 ft 222 kts 18°
2026-05-03 21:02 58.38467 -134.95130 3414 ft 212 kts 20°
2026-05-03 21:02 58.39567 -134.93411 3364 ft 202 kts 62°
2026-05-03 21:03 58.39894 -134.90975 3378 ft 184 kts 86°
2026-05-03 21:03 58.39772 -134.88729 3367 ft 159 kts 105°
2026-05-03 21:03 58.39483 -134.86727 3365 ft 156 kts 108°
2026-05-03 21:03 58.39205 -134.84670 3019 ft 154 kts 105°
2026-05-03 21:04 58.38952 -134.82723 2818 ft 152 kts 106°
2026-05-03 21:04 58.38719 -134.80772 2652 ft 152 kts 103°
2026-05-03 21:04 58.38461 -134.78799 2442 ft 152 kts 106°
2026-05-03 21:04 58.38193 -134.76853 2237 ft 153 kts 106°
2026-05-03 21:05 58.37911 -134.74912 2033 ft 149 kts 108°
2026-05-03 21:05 58.37620 -134.72998 1866 ft 149 kts 106°
2026-05-03 21:05 58.37362 -134.71071 1789 ft 156 kts 105°
2026-05-03 21:05 58.37077 -134.69060 1644 ft 154 kts 106°
2026-05-03 21:06 58.36809 -134.67059 1400 ft 156 kts 105°
2026-05-03 21:06 58.36541 -134.65087 1093 ft 154 kts 107°
2026-05-03 21:06 58.36262 -134.63108 689 ft 153 kts 106°
2026-05-03 21:06 58.35987 -134.61159 322 ft 148 kts 106°
2026-05-03 21:07 58.35734 -134.59376 41 ft 127 kts 105°
2026-05-03 21:07 58.35598 -134.58361 38 ft 48 kts 104°
2026-05-03 21:07 58.35575 -134.58078 39 ft 17 kts 73°
2026-05-03 21:07 58.35612 -134.58037 40 ft 4 kts
2026-05-03 21:08 58.35702 -134.58019 40 ft 40 kts
2026-05-03 21:08 58.35772 -134.58036 40 ft 2 kts 277°
2026-05-03 21:08 58.35773 -134.58050 40 ft 0 kts 277°